When you browse on this site, cookies collect data to enhance your experience and personalize the content and advertising you see.
Visit our Privacy Policy to learn more. By continuing to use the site, you agree to this use of cookies and data.
  • In Hungary
  • List of Countries
  • For 7 days
  • Water Temperature
  • Weather Map
  • News
  • Weather Widgets
  • user-avatar
    Login

    Hourly Weather Udok

    Today, 17 October, Thursday

    Time Temperature Precipitation Wind Pressure Humidity
    00:00 +8°C° 0 mm 1 mps 612 mmHg 53%
    01:00 +7°C° 0 mm 1 mps 612 mmHg 54%
    02:00 +7°C° 0 mm 1 mps 612 mmHg 55%
    03:00 +7°C° 0 mm 1 mps 613 mmHg 54%
    04:00 +7°C° 0 mm 1 mps 613 mmHg 55%
    05:00 +7°C° 0 mm 1 mps 613 mmHg 56%
    06:00 +7°C° 0 mm 1 mps 613 mmHg 57%
    07:00 +9°C° 0 mm 1 mps 614 mmHg 52%
    08:00 +11°C° 0 mm 1 mps 615 mmHg 48%
    09:00 +14°C° 0 mm 1 mps 616 mmHg 43%
    10:00 +15°C° 0 mm 1 mps 616 mmHg 41%
    11:00 +16°C° 0 mm 2 mps 616 mmHg 38%
    12:00 +17°C° 0 mm 2 mps 616 mmHg 36%
    13:00 +16°C° 0 mm 2 mps 616 mmHg 37%
    14:00 +16°C° 0 mm 2 mps 616 mmHg 38%
    15:00 +16°C° 0 mm 2 mps 615 mmHg 39%
    16:00 +14°C° 0 mm 1 mps 615 mmHg 48%
    17:00 +11°C° 0 mm 1 mps 614 mmHg 57%
    18:00 +9°C° 0 mm 1 mps 613 mmHg 66%
    19:00 +9°C° 0 mm 1 mps 613 mmHg 65%
    20:00 +8°C° 0 mm 1 mps 612 mmHg 64%
    21:00 +8°C° 0 mm 1 mps 612 mmHg 63%
    22:00 +7°C° 0 mm 1 mps 612 mmHg 63%
    23:00 +7°C° 0 mm 1 mps 612 mmHg 63%

    Tomorrow, 18 October, Friday

    Time Temperature Precipitation Wind Pressure Humidity
    00:00 +7°C° 0 mm 1 mps 612 mmHg 62%
    01:00 +7°C° 0 mm 1 mps 611 mmHg 63%
    02:00 +7°C° 0 mm 1 mps 611 mmHg 63%
    03:00 +7°C° 0 mm 1 mps 611 mmHg 63%
    04:00 +7°C° 0 mm 1 mps 611 mmHg 62%
    05:00 +7°C° 0 mm 1 mps 611 mmHg 61%
    06:00 +7°C° 0 mm 1 mps 611 mmHg 61%
    07:00 +10°C° 0 mm 1 mps 612 mmHg 54%
    08:00 +12°C° 0 mm 1 mps 613 mmHg 46%
    09:00 +14°C° 0 mm 0 mps 614 mmHg 39%
    10:00 +16°C° 0 mm 1 mps 614 mmHg 36%
    11:00 +18°C° 0 mm 1 mps 614 mmHg 33%
    12:00 +19°C° 0 mm 1 mps 615 mmHg 30%
    13:00 +19°C° 0 mm 1 mps 614 mmHg 32%
    14:00 +18°C° 0 mm 1 mps 614 mmHg 34%
    15:00 +18°C° 0 mm 1 mps 613 mmHg 36%
    16:00 +15°C° 0 mm 1 mps 612 mmHg 43%
    17:00 +13°C° 0 mm 1 mps 612 mmHg 50%
    18:00 +11°C° 0 mm 1 mps 611 mmHg 57%
    19:00 +10°C° 0 mm 1 mps 611 mmHg 54%
    20:00 +10°C° 0 mm 1 mps 611 mmHg 52%
    21:00 +10°C° 0 mm 1 mps 611 mmHg 50%
    22:00 +9°C° 0 mm 1 mps 611 mmHg 49%
    23:00 +9°C° 0 mm 1 mps 610 mmHg 48%

    Day after tomorrow, 19 October, Saturday

    Time Temperature Precipitation Wind Pressure Humidity
    00:00 +9°C° 0 mm 1 mps 610 mmHg 47%
    01:00 +8°C° 0 mm 1 mps 610 mmHg 47%
    02:00 +8°C° 0 mm 1 mps 610 mmHg 47%
    03:00 +8°C° 0 mm 1 mps 610 mmHg 47%
    04:00 +8°C° 0 mm 1 mps 610 mmHg 48%
    05:00 +8°C° 0 mm 1 mps 610 mmHg 49%
    06:00 +8°C° 0 mm 1 mps 610 mmHg 50%
    07:00 +10°C° 0 mm 1 mps 611 mmHg 47%
    08:00 +13°C° 0 mm 1 mps 612 mmHg 43%
    09:00 +14°C° 0 mm 0 mps 614 mmHg 39%
    10:00 +16°C° 0 mm 1 mps 614 mmHg 39%
    11:00 +18°C° 0 mm 1 mps 614 mmHg 39%
    12:00 +18°C° 0 mm 1 mps 614 mmHg 38%
    13:00 +18°C° 0.1 mm 1 mps 614 mmHg 41%
    14:00 +18°C° 0.1 mm 1 mps 614 mmHg 43%
    15:00 +16°C° 0.1 mm 1 mps 613 mmHg 46%
    16:00 +15°C° 0.2 mm 1 mps 613 mmHg 53%
    17:00 +13°C° 0.2 mm 1 mps 612 mmHg 61%
    18:00 +11°C° 0.2 mm 1 mps 612 mmHg 68%
    19:00 +11°C° 0 mm 1 mps 612 mmHg 70%
    20:00 +9°C° 0 mm 0 mps 612 mmHg 73%
    21:00 +8°C° 0 mm 0 mps 612 mmHg 75%
    22:00 +8°C° 0 mm 0 mps 612 mmHg 76%
    23:00 +8°C° 0 mm 0 mps 612 mmHg 77%

    20 October, Sunday

    Time Temperature Precipitation Wind Pressure Humidity
    00:00 +8°C° 0 mm 1 mps 612 mmHg 79%
    01:00 +8°C° 0 mm 1 mps 612 mmHg 80%
    02:00 +8°C° 0 mm 1 mps 612 mmHg 81%
    03:00 +7°C° 0 mm 1 mps 612 mmHg 82%
    04:00 +7°C° 0 mm 1 mps 612 mmHg 81%
    05:00 +7°C° 0 mm 1 mps 612 mmHg 81%
    06:00 +7°C° 0 mm 1 mps 612 mmHg 81%
    07:00 +9°C° 0 mm 1 mps 613 mmHg 74%
    08:00 +11°C° 0 mm 1 mps 614 mmHg 67%
    09:00 +12°C° 0 mm 0 mps 615 mmHg 61%
    10:00 +14°C° 0.1 mm 1 mps 615 mmHg 59%
    11:00 +15°C° 0.1 mm 1 mps 615 mmHg 58%
    12:00 +16°C° 0.1 mm 2 mps 615 mmHg 57%
    13:00 +15°C° 0.5 mm 2 mps 615 mmHg 59%
    14:00 +15°C° 0.5 mm 1 mps 615 mmHg 62%
    15:00 +15°C° 0.5 mm 1 mps 615 mmHg 64%
    16:00 +13°C° 0.3 mm 1 mps 614 mmHg 72%
    17:00 +11°C° 0.3 mm 1 mps 614 mmHg 80%
    18:00 +10°C° 0.3 mm 1 mps 613 mmHg 88%
    19:00 +8°C° 0.1 mm 0 mps 613 mmHg 89%
    20:00 +8°C° 0.1 mm 0 mps 613 mmHg 90%
    21:00 +8°C° 0.1 mm 0 mps 613 mmHg 91%
    22:00 +9°C° 0 mm 1 mps 613 mmHg 91%
    23:00 +9°C° 0 mm 1 mps 613 mmHg 91%

    21 October, Monday

    Time Temperature Precipitation Wind Pressure Humidity
    00:00 +9°C° 0 mm 1 mps 613 mmHg 91%
    01:00 +9°C° 0 mm 1 mps 613 mmHg 90%
    02:00 +8°C° 0 mm 1 mps 613 mmHg 89%
    03:00 +8°C° 0 mm 1 mps 613 mmHg 88%
    04:00 +8°C° 0 mm 1 mps 613 mmHg 88%
    05:00 +7°C° 0 mm 1 mps 613 mmHg 88%
    06:00 +7°C° 0 mm 1 mps 612 mmHg 88%
    07:00 +8°C° 0 mm 1 mps 613 mmHg 82%
    08:00 +10°C° 0 mm 1 mps 614 mmHg 76%
    09:00 +12°C° 0 mm 1 mps 615 mmHg 70%
    10:00 +13°C° 0 mm 1 mps 615 mmHg 68%
    11:00 +14°C° 0 mm 1 mps 615 mmHg 65%
    12:00 +15°C° 0 mm 2 mps 615 mmHg 62%
    13:00 +14°C° 0.1 mm 2 mps 615 mmHg 64%
    14:00 +14°C° 0.1 mm 2 mps 615 mmHg 65%
    15:00 +14°C° 0.1 mm 2 mps 614 mmHg 66%
    16:00 +12°C° 0 mm 1 mps 614 mmHg 74%
    17:00 +11°C° 0 mm 1 mps 613 mmHg 81%
    18:00 +9°C° 0 mm 1 mps 613 mmHg 89%
    19:00 +9°C° 0 mm 1 mps 613 mmHg 90%
    20:00 +8°C° 0 mm 1 mps 613 mmHg 90%
    21:00 +8°C° 0 mm 1 mps 612 mmHg 91%
    22:00 +8°C° 0 mm 1 mps 612 mmHg 91%
    23:00 +7°C° 0 mm 1 mps 612 mmHg 91%

    22 October, Tuesday

    Time Temperature Precipitation Wind Pressure Humidity
    00:00 +7°C° 0 mm 1 mps 612 mmHg 91%
    01:00 +7°C° 0 mm 1 mps 612 mmHg 90%
    02:00 +7°C° 0 mm 1 mps 612 mmHg 90%
    03:00 +7°C° 0 mm 1 mps 612 mmHg 89%
    04:00 +6°C° 0 mm 1 mps 612 mmHg 89%
    05:00 +6°C° 0 mm 1 mps 611 mmHg 88%
    06:00 +6°C° 0 mm 1 mps 611 mmHg 87%
    07:00 +8°C° 0 mm 1 mps 612 mmHg 79%
    08:00 +10°C° 0 mm 1 mps 613 mmHg 71%
    09:00 +12°C° 0 mm 1 mps 614 mmHg 63%
    10:00 +13°C° 0 mm 1 mps 614 mmHg 60%
    11:00 +14°C° 0 mm 1 mps 615 mmHg 57%
    12:00 +15°C° 0 mm 2 mps 615 mmHg 54%
    13:00 +15°C° 0 mm 2 mps 615 mmHg 55%
    14:00 +15°C° 0 mm 2 mps 614 mmHg 57%
    15:00 +14°C° 0 mm 2 mps 614 mmHg 59%
    16:00 +12°C° 0 mm 1 mps 613 mmHg 68%
    17:00 +11°C° 0 mm 1 mps 612 mmHg 77%
    18:00 +9°C° 0 mm 1 mps 612 mmHg 85%
    19:00 +8°C° 0 mm 1 mps 611 mmHg 85%
    20:00 +8°C° 0 mm 1 mps 611 mmHg 85%
    21:00 +7°C° 0 mm 1 mps 611 mmHg 85%
    22:00 +7°C° 0 mm 1 mps 611 mmHg 85%
    23:00 +7°C° 0 mm 1 mps 611 mmHg 84%
    Show more